Location: Hungerford
(51.4167°N, 1.5167°W)
Time: 22:35:10
(UTC+00:00)

SJ 16-02 - Pass Details

Date: 18 September 2020
Orbit: 606 x 616 km, 75.0° (Epoch: 21 October)

Event Time Altitude Azimuth Distance (km) Brightness Sun altitude
Rises 19:37:00 0° 232° (SW) 2,858 5.2 -13.7°
Reaches altitude 10° 19:39:28 10° 243° (WSW) 1,958 4.5 -14.0°
Maximum altitude 19:43:18 29° 304° (NW) 1,119 3.5 -14.6°
Drops below altitude 10° 19:47:10 10° 6° (N) 1,969 4.1 -15.2°
Sets 19:49:39 0° 18° (NNE) 2,878 4.9 -15.5°
